Location: Observatorio del Centro Ecologico de Sonora
(29.0667°N, 110.9333°W)
Time: 06:12:47
(UTC-07:00)

ISS - Visible Passes

Search period start: 01 April 2015 00:00
Search period end: 11 April 2015 00:00
Orbit: 396 x 405 km, 51.6° (Epoch: 01 April)

Date Brightness Start Highest point End Pass type
(mag) Time Alt. Az. Time Alt. Az. Time Alt. Az.
01 Apr -0.2 03:59:47 14° NE 03:59:47 14° NE 04:01:13 10° ENE visible
01 Apr -2.8 05:32:56 10° WNW 05:35:57 38° SW 05:38:58 10° SSE visible
01 Apr -1.2 20:30:42 10° SW 20:32:05 23° WSW 20:32:05 23° WSW visible
02 Apr -3.4 04:42:29 79° NNE 04:42:32 79° NE 04:45:44 10° SE visible
02 Apr -3.1 19:37:19 10° SSW 19:40:27 48° SE 19:42:30 19° ENE visible
03 Apr -1.4 05:25:28 13° SW 05:25:28 13° SW 05:26:44 10° SSW visible
03 Apr -0.9 20:20:37 10° W 20:23:19 23° NW 20:25:18 14° N visible
04 Apr -2.4 19:26:28 10° WSW 19:29:38 51° NW 19:32:50 10° NNE visible
05 Apr 0.0 20:11:53 10° NW 20:12:46 11° NNW 20:13:31 10° NNW visible
06 Apr -0.6 19:16:21 10° W 19:18:52 20° NW 19:21:20 10° N visible
